• MPC Preparation (Info)

  • MPEC 2022-B61 : 2022 BO1

    The following Minor Planet Electronic Circular may be linked-to from your own Web pages, but must not otherwise be redistributed electronically.

    A form allowing access to any MPEC is at the bottom of this page.


    Read MPEC 2022-B60 Read MPEC 2022-B62


    M.P.E.C. 2022-B61                              Issued 2022 January 27, 11:53 UT
    
         The Minor Planet Electronic Circulars contain information on unusual
             minor planets and routine data on comets.  They are published
        on behalf of Division F of the International Astronomical Union by the
              Minor Planet Center, Smithsonian Astrophysical Observatory,
                              Cambridge, MA 02138, U.S.A.
    
                 Prepared using the Tamkin Foundation Computer Network
    
                                  MPC@CFA.HARVARD.EDU
                URL https://www.minorplanetcenter.net/    ISSN 1523-6714
    
                                    2022 BO1                                 
    
    
    Observations:
         K22B01O* C2022 01 26.44452411 11 25.05 +16 27 07.4          19.23GVEB061G96
         K22B01O  C2022 01 26.45015011 11 10.47 +16 25 59.4          19.11GVEB061G96
         K22B01O  C2022 01 26.45580711 10 55.76 +16 24 50.6                VEB061G96
         K22B01O  C2022 01 26.46142911 10 41.44 +16 23 43.4          19.46GVEB061G96
         K22B01O mC2022 01 26.53130411 07 50.38 +16 09 53.2          19.17GVEB061I52
         K22B01O mC2022 01 26.53149411 07 49.93 +16 09 51.0          19.72GVEB061I52
         K22B01O mC2022 01 26.53168211 07 49.49 +16 09 48.9          19.62GVEB061I52
         K22B01O mC2022 01 26.53187111 07 49.05 +16 09 46.3          19.32GVEB061I52
         K22B01O KC2022 01 26.93919910 56 09.50 +15 03 01.3          19.7 GXEB061I93
         K22B01O KC2022 01 26.94349510 56 02.60 +15 02 29.7          20.5 GXEB061I93
         K22B01O KC2022 01 26.94778810 55 55.69 +15 01 57.0          20.3 GXEB061I93
         K22B01O KC2022 01 27.00403710 54 26.90 +14 54 58.4          19.5 GXEB061958
         K22B01O KC2022 01 27.00903210 54 19.10 +14 54 22.7          19.4 GXEB061958
         K22B01O KC2022 01 27.01402610 54 11.26 +14 53 45.8          19.2 GXEB061958
         K22B01O KC2022 01 27.29414910 48 03.88 +14 21 39.4          19.9 VuEB061H21
         K22B01O KC2022 01 27.30039310 47 55.77 +14 21 00.9          19.8 VuEB061H21
         K22B01O KC2022 01 27.30524010 47 49.50 +14 20 30.6          20.2 VuEB061H21
    
    Observer details:
    958 Observatoire de Dax.  Observers P. Dupouy, J. B. de Vanssay.  Measurer P.
        Dupouy.  0.43-m f/2.7 reflector + CCD.
    G96 Mt. Lemmon Survey.  Observer K. W. Wierzchos.  Measurers E. J.
        Christensen, G. A. Farneth, D. C. Fuls, A. R. Gibbs, A. D. Grauer, H.
        Groeller, R. A. Kowalski, S. M. Larson, G. J. Leonard, D. Rankin, R. L.
        Seaman, A. Serrano, F. C. Shelly, K. W. Wierzchos.  1.5-m reflector + 10K
        CCD.
    H21 Astronomical Research Observatory, Westfield.  Observer R. Holmes.
        Measurers T. Linder, R. Holmes, L. Horn.  0.76-m f/3.0 astrograph + CCD.
    I52 Steward Observatory, Mt. Lemmon Station.  Observer E. J. Christensen.
        Measurers E. J. Christensen, G. A. Farneth, J. B. Fazekas, D. C. Fuls, A.
        R. Gibbs, A. D. Grauer, H. Groeller, R. A. Kowalski, S. M. Larson, G. J.
        Leonard, D. Rankin, R. L. Seaman, A. Serrano, F. C. Shelly, K. W.
        Wierzchos.
    I93 St Pardon de Conques.  Observer F. Losse.  0.40-m f/3.7 reflector + CCD.
    
    Orbital elements:
    2022 BO1                                                 Earth MOID = 0.0033 AU
    Epoch 2022 Jan. 21.0 TT = JDT 2459600.5                 Veres                   
    M   9.37526              (2000.0)            P               Q                  
    n   0.30042142     Peri.  120.05294     +0.27625303     -0.96096556             
    a   2.2079138      Node   313.90214     +0.87438161     +0.25784216             
    e   0.6165854      Incl.    1.20466     +0.39892488     +0.10031261             
    P   3.28           H   27.28          G   0.15           U   7                  
    Residuals in seconds of arc
    220126 G96  0.1+  0.2-    220126 I52  0.1-  0.3+    220127 958  0.3+  0.2-
    220126 G96  0.2+  0.1-    220126 I52  0.0   0.1-    220127 958  0.0   0.1-
    220126 G96 (1.8-  0.6-)   220126 I93  0.1+  0.6-    220127 H21  0.1-  0.2-
    220126 G96  0.6-  0.0     220126 I93  0.0   0.5+    220127 H21  0.0   0.2+
    220126 I52  0.1+  0.2+    220126 I93  0.4-  0.4+    220127 H21  0.1+  0.0
    220126 I52  0.0   0.2+    220127 958  0.3-  1.6-
    
    Ephemeris:
    2022 BO1                 a,e,i = 2.21, 0.62, 1                   q = 0.8465
    Date    TT    R. A. (2000) Decl.     Delta      r    Elong.  Phase     V
    2021 12 28    21 38 39.5 -10 16 42   0.2147  0.8532    47.5   121.8    28.6
    ...
    2022 01 12    21 43 44.3 -08 20 55   0.09558 0.9060    34.2   142.4    29.1
    ...
    2022 01 20    21 26 45.7 -05 54 57   0.03491 0.9522    24.1   155.1    29.4
    ...
    2022 01 26    11 34 04.2 +18 18 52   0.01147 0.9930   137.0    42.5    19.2
    2022 01 27    10 54 19.6 +14 59 43   0.01849 1.0002   146.8    32.6    20.0
    2022 01 28    10 37 03.2 +13 23 20   0.02578 1.0075   151.6    27.7    20.6
    ...
    2022 02 03    10 09 24.6 +10 46 55   0.07072 1.0535   163.3    15.6    22.5
    ...
    2022 02 11    10 01 01.6 +10 13 33   0.1332  1.1192   172.9     6.2    23.6
    ...
    2022 02 26    09 56 09.9 +10 07 42   0.2631  1.2502   170.3     7.6    25.4
    
    M. P. C. Staff               (C) Copyright 2022 MPC           M.P.E.C. 2022-B61
    


    Read MPEC 2022-B60 Read MPEC 2022-B62


    MPEC number:

    Enter an MPEC number in one of the following forms:

    • 1997-B01 (the full form)
    • J97B01 (the packed version of the full form)
    • B01 (the abbreviated form)